Ukiah, CA

9:39 AM PDT on September 19, 2017 (GMT -0700)
Ukiah Municipal

Weather History for KUKI - September, 2012

Change the Weather History Date:

Tuesday, September 4, 2012

  Actual Average Record
Temperature  
Mean Temperature 73 °F 70 °F  
Max Temperature 97 °F 89 °F 113 °F (1955)
Min Temperature 49 °F 52 °F 37 °F (1907)
Degree Days  
Heating Degree Days 0 0  
Month to date heating degree days 0 0  
Since 1 July heating degree days 1 3  
Cooling Degree Days 8 6  
Month to date cooling degree days 27 24  
Year to date cooling degree days 795 707  
Growing Degree Days 23 (Base 50)    
Moisture  
Dew Point 42 °F    
Average Humidity 42    
Maximum Humidity 74    
Minimum Humidity 9    
Precipitation  
Precipitation 0.00 in 0.00 in 0.29 in (1912)
Month to date precipitation 0.00 0.01  
Year to date precipitation 18.92 23.53  
Since 1 July precipitation T  
Snow  
Snow 0.00 in - - ()
Month to date snowfall 0.0  
Since 1 July snowfall 0.0  
Since 1 September snowfall 0.0  
Snow Depth 0.00 in    
Sea Level Pressure  
Sea Level Pressure 29.94 in    
Wind  
Wind Speed 2 mph (SSE)    
Max Wind Speed 14 mph    
Max Gust Speed 21 mph    
Visibility 10 miles    
Events      
T = Trace of Precipitation, MM = Missing Value Source: NWS Daily Summary

Daily Weather History Graph

Daily Weather History Graph

Search for Another Location

Airport or City:

Trip Planner

Search our weather history database for the weather conditions in past years. The results will help you decide how hot, cold, wet, or windy it might be!

Date:

Astronomy

Sep. 04, 2012 Rise Set
Actual Time 6:44 AM PDT 7:37 PM PDT
Civil Twilight 6:17 AM PDT 8:04 PM PDT
Nautical Twilight 5:45 AM PDT 8:37 PM PDT
Astronomical Twilight 5:11 AM PDT 9:10 PM PDT
Moon 9:36 PM PDT (9/4) 10:54 AM PDT (9/4)
Length of Visible Light 13h 47m
Length of Day
12h 53m
Waning Gibbous, 83% of the Moon is Illuminated
Sep 4
Waning Gibbous
Sep 8
Last Quarter
Sep 15
New
Sep 22
First Quarter
Sep 29
Full

Hourly Weather History & Observations

Time (PDT) Temp. Dew Point Humidity Pressure Visibility Wind Dir Wind Speed Gust Speed Precip Events Conditions
12:56 AM 57.0 °F 46.0 °F 67% 29.94 in 10.0 mi Calm Calm - N/A   Clear
1:56 AM 59.0 °F 44.1 °F 58% 29.94 in 10.0 mi Calm Calm - N/A   Clear
2:56 AM 54.0 °F 44.1 °F 69% 29.95 in 10.0 mi Calm Calm - N/A   Clear
3:56 AM 53.1 °F 43.0 °F 69% 29.95 in 10.0 mi Calm Calm - N/A   Clear
4:56 AM 52.0 °F 41.0 °F 66% 29.96 in 10.0 mi Calm Calm - N/A   Clear
5:56 AM 52.0 °F 41.0 °F 66% 29.97 in 10.0 mi Calm Calm - N/A   Clear
6:56 AM 50.0 °F 42.1 °F 74% 29.99 in 10.0 mi Calm Calm - N/A   Clear
7:56 AM 53.1 °F 43.0 °F 69% 30.00 in 10.0 mi Calm Calm - N/A   Clear
8:56 AM 60.1 °F 41.0 °F 49% 30.00 in 10.0 mi Calm Calm - N/A   Clear
9:56 AM 68.0 °F 41.0 °F 37% 29.99 in 10.0 mi Calm Calm - N/A   Clear
10:56 AM 75.9 °F 43.0 °F 31% 29.98 in 10.0 mi Calm Calm - N/A   Clear
11:56 AM 82.0 °F 43.0 °F 25% 29.96 in 10.0 mi Calm Calm - N/A   Clear
12:56 PM 89.1 °F 44.1 °F 21% 29.94 in 10.0 mi Variable 4.6 mph - N/A   Clear
1:56 PM 96.1 °F 35.1 °F 12% 29.91 in 10.0 mi SSE 8.1 mph - N/A   Clear
2:56 PM 96.1 °F 28.9 °F 9% 29.89 in 10.0 mi SSE 9.2 mph - N/A   Clear
3:56 PM 96.1 °F 37.0 °F 13% 29.88 in 10.0 mi SE 9.2 mph - N/A   Clear
4:56 PM 93.9 °F 39.0 °F 15% 29.87 in 10.0 mi SE 10.4 mph - N/A   Clear
5:56 PM 91.9 °F 42.1 °F 18% 29.88 in 10.0 mi SSW 6.9 mph - N/A   Clear
6:56 PM 88.0 °F 41.0 °F 19% 29.90 in 10.0 mi Calm Calm - N/A   Clear
7:56 PM 80.1 °F 41.0 °F 25% 29.92 in 10.0 mi Calm Calm - N/A   Clear
8:56 PM 75.0 °F 44.1 °F 33% 29.94 in 10.0 mi Calm Calm - N/A   Clear
9:56 PM 66.9 °F 45.0 °F 45% 29.95 in 10.0 mi Calm Calm - N/A   Clear
10:56 PM 66.0 °F 46.0 °F 48% 29.95 in 10.0 mi Calm Calm - N/A   Clear
11:56 PM 61.0 °F 46.0 °F 58% 29.95 in 10.0 mi Calm Calm - N/A   Clear